Location: Peterborough
(44.3091°N, 78.3197°W)
Time: 06:08:44
(UTC-04:00)

Vanguard 2 - Pass Details

Date: 31 March 2023
Orbit: 552 x 2926 km, 32.9° (Epoch: 04 June)

Event Time Altitude Azimuth Distance (km) Brightness Sun altitude
Rises 08:14:04 0° 264° (W) 6,768 11.7 13.0°
Reaches altitude 10° 08:18:48 10° 260° (W) 5,744 11.4 13.8°
Maximum altitude 08:35:11 51° 192° (SSW) 2,960 10.7 16.7°
Drops below altitude 10° 08:47:02 10° 121° (ESE) 4,255 13.0 18.8°
Sets 08:49:59 0° 116° (ESE) 4,963 13.2 19.3°
